Dewpoint
32 31 30 29 29 29 31 30 29 30 30 32 32 32 33 32 26 20 19 22 15 8 8 10 9 6 8 8 8 13 16 15 14 14 13 10 8 7 0 1 0 -4 -4 -4 -1 -4 -9 5 3 -3 4 8 6 7
29 28 27 26 25 25 24 26 28 27 29 31 30 30 29 29 25 21 18 22 20 12 10 15 14 14 13 12 9 12 15 13 12 13 11 10 4 4 3 -4 1 -6 -1 -2 -1 -1 7 2 8 5 2 4 5 6
26 25 25 24 23 22 23 23 22 25 25 25 28 28 28 26 23 20 18 18 15 12 10 6 4 11 4 13 19 10 15 14 13 16 14 9 1 5 -2 -2 -1 4 -0 -3 -3 2 -3 1 1 1 2 5 2 0
25 24 23 23 21 21 21 21 22 22 21 24 21 19 19 22 22 20 19 21 16 11 3 -3 -1 -3 2 6 9 13 14 12 8 10 7 6 2 2 -0 -2 -4 -1 -2 -4 -4 -3 -3 -3 -0 2 2 5 2 3
27 26 24 21 21 22 23 23 21 22 21 20 23 24 24 24 11 9 10 13 13 14 -0 -1 -2 -5 -2 1 4 7 8 5 6 1 1 1 2 1 1 -1 -2 2 -0 -5 -7 -3 1 -1 0 2 3 2 4 3
24 25 23 21 23 25 25 25 23 21 21 20 18 21 24 21 14 16 11 9 11 14 4 -9 -4 -7 -7 1 -0 3 3 4 5 4 2 0 -1 3 -7 -3 1 5 1 -0 0 3 1 0 0 -0 1 3 0 1
24 25 25 25 25 26 26 25 22 18 21 20 19 17 15 14 12 9 8 8 10 10 6 -0 -5 -6 -6 -1 1 1 6 3 4 2 1 1 2 -0 -6 -6 -2 2 1 0 -0 1 -3 -3 -0 2 -1 -1 0 1
25 26 26 26 27 27 26 25 20 17 17 17 14 11 11 11 10 8 11 10 6 5 7 2 -2 -3 -5 -5 -1 0 6 4 1 3 1 1 2 -2 -5 -3 -0 1 2 -1 -1 0 1 1 2 -2 -1 -1 -1 -2
26 26 27 27 26 26 26 25 22 16 14 13 14 8 2 -3 4 9 11 6 6 6 0 -1 -3 -6 -4 -5 1 3 5 -3 -1 -2 -3 -3 -3 -8 -5 1 2 2 3 2 3 2 -1 -1 -2 -2 -1 -1 -2 -3
26 26 27 26 26 25 25 23 18 14 12 8 5 -0 0 -3 12 8 4 8 5 3 3 -2 -3 -4 -3 -3 -0 1 2 -4 -5 -6 -6 0 -2 -0 3 6 3 2 3 5 1 -2 0 -1 -0 -1 -2 -1 -3 -0
27 27 27 26 25 24 24 20 16 10 7 2 0 -3 -2 8 8 7 2 1 3 0 1 -0 -4 -4 -2 -5 -5 -3 -2 -1 -2 -4 -5 -1 -0 2 7 3 3 3 5 1 -0 -0 -1 -1 0 -1 -1 -2 -1 -3
26 26 26 25 24 23 22 20 13 10 9 4 4 8 11 9 4 -2 3 4 0 -1 2 -1 -1 -4 -3 -2 -1 0 1 1 -6 -2 -1 -5 3 6 4 3 2 1 -0 -0 -1 -1 -1 -1 -0 -1 -1 -1 -1 -1
26 26 25 25 24 23 21 19 16 15 11 14 9 6 6 5 -3 1 -2 -1 1 2 3 1 -1 -1 0 0 0 2 -5 -5 0 -1 -6 -2 6 5 4 3 2 1 2 2 1 1 -0 -1 -1 -1 -1 -2 0 -1
27 27 25 24 23 22 21 18 15 13 11 11 7 2 4 2 4 3 2 3 4 2 1 2 1 -0 1 1 1 -3 -2 -1 -9 -11 -7 1 7 5 5 4 3 2 2 2 2 1 1 0 0 -0 -1 -0 -1 -1
26 25 26 26 22 20 19 17 14 12 10 6 7 4 4 5 6 6 4 2 4 3 3 0 2 1 2 3 3 -3 -7 -9 -5 -9 -2 7 7 5 5 5 4 3 3 2 1 1 0 -0 0 -0 -0 -0 -1 -1
27 26 27 23 24 22 16 12 12 13 12 7 6 6 6 7 8 7 6 6 5 3 2 1 2 1 -2 1 -3 -4 -5 -9 -6 4 9 9 7 5 5 5 4 4 4 2 2 2 1 0 0 0 2 1 -2 -2
23 22 26 25 19 18 19 13 12 8 8 7 6 5 4 8 7 6 4 5 5 5 5 6 2 2 3 3 2 2 4 7 11 11 10 9 7 6 5 4 4 5 5 3 3 2 1 1 1 1 0 -2 -2 -2
20 22 25 23 14 14 9 15 9 7 4 5 8 5 3 3 3 6 3 4 5 5 6 3 5 6 4 4 6 11 12 13 14 14 12 9 8 7 6 4 4 5 5 4 3 2 1 1 1 1 -1 -1 -2 0
23 22 22 21 15 9 5 4 11 2 3 5 5 4 3 4 3 2 2 3 4 4 6 7 8 7 8 12 11 12 13 13 12 11 11 10 8 4 5 5 6 6 4 3 3 2 2 2 2 0 -1 -1 -1 1
20 21 20 17 18 7 2 3 11 8 5 4 6 6 3 5 4 3 5 4 5 8 9 7 6 8 10 10 12 13 13 15 13 10 8 7 8 6 6 8 7 5 5 5 3 3 2 2 -0 -0 -0 3 2 -1
15 17 17 11 9 3 0 3 2 2 4 6 5 5 5 8 9 8 7 3 6 7 3 8 9 10 13 14 14 12 10 12 13 12 10 9 9 11 9 7 6 5 5 4 4 3 3 1 1 1 2 2 1 2
13 17 12 14 5 5 2 2 3 4 5 5 7 5 6 5 5 5 1 2 6 5 9 8 9 9 9 9 10 11 9 10 12 14 14 14 10 10 9 7 6 5 5 5 5 4 3 2 2 4 2 2 1 -1
13 13 6 7 1 -0 -1 4 3 1 -0 0 6 6 5 4 5 2 3 7 7 11 12 10 9 11 9 9 9 7 7 8 9 11 12 12 12 12 10 9 7 6 5 5 5 5 4 4 3 3 2 -0 -0 -2
7 -0 -2 -3 -0 -3 4 -0 3 3 1 -2 -3 -3 -1 -3 -1 6 1 6 7 12 6 6 9 7 6 6 6 5 6 9 10 11 11 11 11 10 11 11 10 9 8 7 7 6 5 4 4 3 1 0 -0 -1
-7 -5 -2 -6 0 -3 -6 -5 -5 -6 -8 -4 -5 -4 -4 -2 -1 -1 -2 -0 6 6 9 8 6 6 6 5 6 5 6 7 7 8 8 10 11 11 10 10 10 10 11 9 7 7 6 6 5 3 2 1 -0 1
-10 -4 -4 -5 -3 -5 -5 -8 -7 -8 -6 -8 -4 -1 -4 -4 -4 -12 -2 4 5 5 5 4 3 3 2 3 4 5 6 9 9 8 6 7 8 9 9 8 8 8 8 9 9 7 6 6 4 3 2 2 3 2
-14 -11 -2 -2 -3 -3 -3 -4 -5 -4 -8 -8 -5 -8 -8 -15 -16 -7 7 9 2 3 5 6 7 6 6 7 7 7 8 9 9 8 8 9 10 10 10 9 8 9 11 10 9 8 7 6 5 4 3 3 3 1
-6 -6 -11 -6 -6 -3 -5 -5 -6 -7 -6 -2 -5 -11 -12 -12 -12 2 5 7 3 5 7 9 9 9 9 10 11 10 10 9 9 10 10 10 10 10 10 11 12 13 14 14 13 12 10 8 6 6 5 5 4 3
-7 -5 -5 -11 -11 -7 -5 -5 -5 -1 -2 -4 -8 -9 -5 2 2 -2 -0 1 5 7 5 6 8 10 11 11 10 10 11 11 9 6 5 4 5 5 11 11 12 12 12 12 12 14 15 13 10 8 8 6 5 3
-6 -6 -8 -11 -12 -11 -2 -3 -2 -4 -4 -3 -3 -3 -2 -1 2 6 1 -0 -1 2 6 9 10 10 9 9 8 8 8 9 11 9 8 7 8 10 11 11 10 11 12 12 11 11 13 12 10 8 7 5 3 2
-7 -6 -8 -9 -10 -4 -6 -10 -10 -10 -8 -6 -5 -7 -6 -5 -5 -0 -2 1 1 5 8 7 7 9 10 10 10 9 8 9 11 12 12 13 13 13 13 13 13 12 12 11 11 11 10 9 8 7 7 6 5 7
-7 -11 -11 -12 -4 -4 -7 -7 -7 -7 -5 -7 -4 -6 -6 -4 -7 -0 7 -2 1 3 6 7 9 10 12 13 13 13 12 12 13 14 16 17 18 18 18 19 17 14 12 12 12 12 11 9 8 8 8 8 7 7
-11 -11 -10 -9 -9 -4 -5 -9 -3 -2 -3 -5 -3 -3 -3 -5 -13 -5 3 -0 -0 3 7 10 12 13 13 14 13 12 14 14 14 13 13 13 14 15 15 15 15 16 15 13 13 12 12 11 9 9 9 8 8 8
Wind_Speed
21 22 24 25 26 25 23 22 26 28 27 25 28 24 13 13 18 11 11 11 9 9 13 14 9 8 7 7 5 8 6 7 10 6 7 6 7 6 8 10 6 11 10 9 9 5 2 20 6 6 9 11 17 16
21 22 23 24 25 29 32 27 22 25 27 23 24 29 27 15 13 8 10 12 12 15 8 5 12 12 8 7 5 9 4 6 7 3 9 7 10 7 10 6 14 10 5 4 8 2 5 13 3 14 16 15 16 16
19 20 21 20 21 22 22 28 34 25 24 26 25 25 27 32 36 27 23 14 15 16 13 9 9 9 14 9 5 4 5 6 6 3 4 6 12 9 6 11 7 2 9 5 10 5 25 12 13 19 20 16 18 18
18 18 18 18 18 19 19 19 19 29 27 10 21 29 30 26 24 20 11 10 6 9 8 6 4 6 14 15 14 4 2 3 4 8 9 9 7 8 7 11 14 8 6 12 10 10 22 9 23 21 22 16 19 17
16 16 15 14 16 19 20 17 15 15 25 28 7 9 10 9 18 20 18 15 13 5 9 6 4 14 17 17 21 20 19 14 9 10 10 8 5 5 4 6 8 7 7 7 6 20 11 20 22 22 17 21 18 18
15 15 14 14 17 20 20 18 12 10 14 22 32 18 7 5 5 4 3 12 19 8 8 7 2 12 15 13 21 23 17 16 7 7 5 4 1 3 7 4 5 2 3 7 11 14 15 21 20 14 20 18 20 19
14 15 14 14 16 19 19 17 11 9 10 12 14 24 33 31 20 12 4 9 16 7 5 8 5 8 13 9 6 9 11 8 8 5 6 3 3 5 5 5 16 14 9 16 14 15 15 6 19 20 21 19 21 19
14 14 13 14 16 18 18 14 9 7 4 6 10 11 9 10 11 11 15 20 3 10 9 6 4 8 14 9 8 10 8 5 11 5 3 4 2 5 5 8 13 15 13 13 12 15 17 22 17 19 17 17 18 19
13 13 14 15 15 17 17 13 5 4 3 0 1 1 2 9 7 5 9 7 17 12 8 8 7 6 15 10 6 6 4 7 3 5 4 3 2 5 3 11 15 14 10 18 20 17 17 17 18 19 19 19 16 22
13 12 14 14 15 18 19 12 4 3 2 3 3 6 8 6 12 10 4 7 14 13 9 7 9 6 8 7 10 6 5 4 3 5 5 2 2 2 3 8 12 16 16 15 19 23 19 22 19 20 20 17 19 18
13 13 14 12 14 16 20 11 3 2 1 4 6 4 5 12 4 7 9 11 10 8 8 7 7 6 5 6 6 5 3 4 3 4 4 1 1 2 5 10 11 13 11 12 13 17 15 18 19 20 21 18 19 18
15 16 17 13 12 13 17 18 7 7 4 5 6 1 4 11 9 9 8 6 10 5 7 7 8 3 4 2 3 4 4 3 3 5 3 4 2 4 8 12 14 12 14 16 15 17 17 17 17 17 20 19 21 18
18 16 17 19 13 10 11 14 15 15 7 5 8 8 10 11 22 10 12 6 7 8 9 10 7 4 4 1 3 4 6 4 6 3 4 1 1 8 11 13 14 14 15 16 17 16 17 18 16 16 19 18 19 16
18 15 15 16 18 20 11 8 1 4 11 10 9 12 9 9 7 4 5 6 4 6 11 11 6 3 3 5 2 4 3 2 7 6 3 8 11 13 10 12 14 17 16 17 17 17 18 18 19 17 17 18 18 18
12 21 19 14 13 13 14 17 14 8 8 8 8 8 9 2 3 2 2 5 4 5 7 6 5 1 3 4 3 4 7 6 3 4 8 14 15 12 13 14 14 15 16 17 16 16 17 17 17 19 17 18 18 18
10 6 12 18 15 18 11 4 10 7 7 6 10 6 2 3 3 2 3 5 2 6 1 2 3 4 6 5 5 4 6 3 5 11 17 16 16 15 14 14 15 15 15 17 16 16 16 17 18 20 20 16 15 18
7 6 22 13 12 26 25 10 8 9 6 6 5 2 2 3 4 4 3 5 4 4 5 3 5 4 4 4 3 3 3 8 16 18 16 15 16 18 17 17 15 15 16 16 16 16 17 17 17 18 18 18 17 19
6 9 19 14 1 9 7 10 7 7 7 4 2 2 3 3 5 3 4 5 5 5 5 3 1 3 3 4 5 4 9 13 14 14 15 15 15 15 14 16 16 15 16 15 15 17 16 16 17 15 17 18 18 16
12 16 18 17 9 7 6 8 7 4 1 1 3 2 3 5 4 5 5 4 2 2 3 1 2 3 4 6 11 16 15 13 17 18 17 16 15 13 15 15 16 14 15 16 16 15 15 15 14 14 14 16 17 13
7 15 19 19 10 6 6 5 3 4 1 2 2 3 6 5 5 5 5 3 3 2 2 2 4 5 7 13 12 15 15 14 14 18 18 12 9 11 14 13 13 14 15 14 13 15 14 13 12 12 14 16 17 17
8 10 14 8 8 13 7 3 5 2 2 2 3 4 5 3 3 4 4 7 2 3 3 7 9 15 14 15 14 14 15 12 14 13 19 20 15 12 13 12 11 12 14 13 14 15 14 13 14 14 14 14 14 12
6 9 5 8 7 6 8 4 2 1 2 3 3 4 3 4 5 6 8 3 4 5 6 5 8 11 15 16 14 11 15 15 15 15 18 17 14 14 13 11 10 13 12 13 13 14 14 12 14 12 13 14 13 13
5 5 6 10 6 8 2 2 3 5 3 7 5 4 3 4 4 7 4 4 6 5 5 8 13 11 16 20 17 16 13 14 15 15 15 14 14 13 13 13 11 13 15 14 11 12 13 15 14 14 13 14 13 14
9 7 7 6 8 4 2 5 2 4 3 5 6 5 6 6 11 3 5 5 6 4 6 14 14 17 14 13 13 15 13 11 15 15 12 13 14 14 11 13 12 12 13 14 12 12 13 13 15 13 13 13 14 14
5 10 7 7 6 5 6 6 7 6 4 5 6 3 5 7 5 4 4 5 5 9 14 15 13 13 18 20 17 15 10 10 14 17 15 12 14 14 13 12 14 14 11 12 13 13 13 13 12 12 13 13 15 17
8 8 5 5 3 4 4 4 6 4 4 4 2 3 3 4 3 6 3 6 7 10 17 16 17 20 19 12 18 20 18 9 11 15 17 12 12 13 16 16 17 14 9 12 12 13 16 15 14 16 16 16 17 16
5 5 4 0 1 1 1 1 0 1 3 3 3 4 4 4 4 5 6 6 10 14 14 15 13 14 18 23 18 16 16 14 13 17 17 17 15 14 15 17 17 12 6 9 12 14 18 17 16 16 16 16 14 13
3 3 6 7 1 0 2 2 2 3 3 2 0 3 2 1 4 6 4 8 15 17 17 14 11 10 14 18 18 19 18 14 13 15 14 15 16 13 13 14 15 20 16 15 16 15 15 16 16 17 17 18 17 11
2 3 2 2 2 3 5 4 3 0 2 0 2 3 3 4 4 5 6 13 15 14 20 26 28 20 14 12 12 14 16 16 19 22 25 23 21 14 6 11 14 14 14 15 18 18 15 16 16 16 16 15 14 13
4 4 2 2 3 3 2 1 1 2 2 2 3 6 5 5 6 6 11 12 17 22 18 16 17 18 20 22 25 23 15 13 8 12 20 22 19 22 20 18 16 15 13 14 16 16 17 15 15 13 13 14 15 15
3 3 3 3 5 1 0 2 1 1 1 1 1 3 6 8 9 5 5 5 11 17 18 27 25 20 19 21 21 23 26 15 19 19 17 18 19 20 19 18 16 15 14 14 15 16 16 16 15 16 17 18 19 20
3 1 4 4 3 2 1 4 3 2 1 1 2 3 4 4 5 4 2 7 19 26 22 22 22 25 23 19 17 15 18 21 21 21 22 21 20 19 19 16 13 14 14 16 15 16 16 18 18 18 19 21 21 21
2 2 3 5 5 4 7 9 2 4 1 2 2 2 2 3 4 6 4 2 8 16 19 20 20 20 19 20 18 18 21 20 23 27 28 30 29 27 21 17 16 15 15 15 15 15 17 19 19 19 20 21 22 22
Wind_Direction
52 49 48 45 40 32 24 27 29 28 25 25 29 20 11 43 63 84 51 19 104 104 48 39 35 31 354 2 11 330 332 5 3 49 27 38 47 69 85 50 7 38 342 23 357 55 42 6 350 48 323 325 336 338
61 58 56 51 46 46 42 31 25 30 28 31 37 42 43 52 72 77 74 37 69 81 116 106 77 40 9 322 302 336 60 22 17 5 37 62 44 53 40 56 15 37 21 13 9 13 46 354 33 26 357 334 333 334
58 51 47 43 41 40 38 41 40 28 34 44 49 52 57 65 72 91 105 106 84 96 77 57 360 341 4 7 268 4 51 348 23 314 68 84 73 24 75 47 49 40 12 15 328 53 351 354 7 358 352 335 329 324
46 39 33 32 34 27 24 27 31 39 32 20 59 64 61 64 73 73 68 15 70 96 90 46 23 31 345 20 37 21 15 71 52 48 68 59 92 40 63 116 63 341 356 327 278 352 337 355 345 336 325 321 323 319
29 22 19 18 17 13 12 15 23 27 36 33 352 289 339 45 75 77 66 38 24 95 123 131 155 19 11 21 40 43 51 63 44 52 59 62 52 94 126 120 43 10 12 353 289 314 306 301 315 313 330 320 315 319
27 21 20 18 10 5 6 10 22 33 37 43 51 52 24 352 329 247 84 40 11 22 100 80 146 16 360 19 30 35 30 43 63 74 82 75 215 65 51 53 44 29 349 310 288 296 306 297 295 320 313 312 312 310
22 19 17 10 2 2 4 15 29 41 48 53 49 55 64 63 71 62 62 295 322 313 87 104 54 23 343 14 34 13 34 46 52 67 48 63 32 61 88 12 321 322 314 321 306 343 316 300 308 308 310 307 309 305
14 12 6 1 1 2 2 11 21 34 55 70 64 53 57 68 74 43 14 21 5 85 43 71 39 36 10 360 10 3 12 42 30 80 51 30 17 63 66 318 318 322 316 313 314 303 285 292 296 308 303 314 310 310
7 6 4 359 360 4 1 2 12 31 32 321 260 65 63 33 38 333 342 33 49 61 82 57 26 350 348 5 25 352 342 51 353 55 26 353 84 66 271 301 314 321 307 299 302 298 302 306 311 316 317 316 314 315
11 4 0 3 7 8 2 13 36 42 39 303 308 37 25 356 320 315 21 23 32 31 46 58 332 353 358 334 4 12 30 31 55 15 309 69 152 145 239 285 303 310 297 296 319 320 319 321 319 320 316 312 312 312
25 17 10 18 18 18 12 21 58 337 290 45 42 50 295 300 12 36 43 39 5 42 22 1 42 341 31 18 353 25 352 341 49 348 8 232 113 231 299 308 301 299 292 305 303 304 315 312 313 317 315 313 312 318
44 35 31 29 26 27 28 32 65 63 50 94 104 98 14 26 25 54 29 24 39 32 2 354 335 338 324 327 327 1 353 1 30 320 349 359 257 284 323 327 324 325 327 324 321 320 319 317 315 315 313 312 313 316
45 45 42 43 41 37 40 58 69 104 118 65 40 45 15 354 38 33 359 4 4 359 11 340 323 347 304 308 304 349 24 13 313 334 349 288 304 340 334 334 324 325 323 319 318 314 313 312 314 312 309 309 307 310
38 39 46 50 52 51 46 41 112 50 56 52 38 28 43 24 36 6 314 311 319 325 324 321 298 327 318 356 321 10 329 340 1 349 322 344 350 334 330 328 322 318 319 315 311 310 312 313 312 311 308 308 313 308
9 35 35 40 60 67 69 72 59 50 58 53 38 46 48 272 240 282 294 289 273 305 324 325 265 280 358 355 7 355 3 357 357 290 299 327 326 324 320 317 309 308 307 307 306 307 308 312 311 308 310 311 306 309
344 346 6 25 59 71 70 50 42 58 55 55 43 70 10 300 344 299 308 303 28 307 285 243 310 18 27 345 18 22 346 300 290 315 313 317 314 313 309 308 305 300 300 305 303 304 310 310 308 304 306 308 310 311
56 24 338 327 6 47 45 68 51 54 53 47 43 52 0 263 295 314 311 326 317 294 354 335 35 357 293 329 325 208 242 269 296 303 307 307 308 310 309 306 300 299 301 303 302 309 307 305 303 308 315 318 315 313
47 333 351 344 297 46 41 39 72 62 56 33 40 329 300 268 301 289 335 346 344 340 341 32 301 360 329 314 297 260 279 288 290 293 300 302 301 299 294 295 297 293 295 292 302 301 301 304 310 314 316 315 316 311
33 13 7 14 55 82 64 40 42 87 57 282 291 262 269 275 254 269 279 298 275 286 295 283 335 311 274 248 273 293 300 299 300 303 297 295 290 291 296 294 290 290 293 301 303 304 299 299 299 311 314 315 305 329
3 12 9 21 44 75 74 48 4 91 93 317 287 308 296 274 296 285 282 325 296 277 292 292 242 246 247 270 272 275 285 294 297 301 300 298 297 292 288 289 293 293 295 295 295 309 306 310 315 314 316 314 328 319
27 354 4 45 47 59 81 38 56 64 332 312 320 333 302 287 319 339 324 354 298 237 272 240 250 265 261 267 271 276 281 275 277 270 283 296 299 287 294 291 286 284 285 290 296 301 313 300 305 308 300 310 312 318
353 357 52 35 70 60 74 22 76 323 355 310 328 341 341 347 325 338 323 304 252 260 223 262 274 288 298 294 291 271 273 273 269 271 281 285 289 295 295 293 292 291 287 284 286 289 294 298 300 307 311 308 319 312
6 30 51 27 76 43 20 337 29 6 0 335 339 349 354 341 324 333 293 258 269 263 272 286 295 300 290 291 289 286 274 267 269 268 271 275 276 276 276 278 271 276 287 289 280 281 286 299 310 310 314 313 308 311
36 50 36 44 33 38 323 17 18 2 20 17 3 344 348 325 330 4 297 280 278 309 326 326 319 317 307 289 290 293 290 256 265 275 268 270 280 283 268 271 271 266 264 276 280 278 280 284 302 305 302 302 305 302
66 10 24 22 13 17 20 0 360 15 0 351 348 337 336 346 336 317 294 297 319 343 346 336 327 317 314 313 307 306 301 268 276 291 292 265 269 284 285 271 266 262 262 270 275 276 282 287 286 289 290 296 291 296
67 2 37 8 355 21 1 346 356 345 325 326 319 305 352 345 314 290 279 338 352 343 334 327 321 325 329 327 311 310 310 299 271 278 289 281 259 264 285 294 301 298 238 236 256 272 282 284 283 290 292 295 304 313
55 11 1 76 88 97 309 265 275 273 295 298 324 343 354 326 310 328 341 19 338 321 307 299 292 299 305 316 316 307 305 298 272 273 286 288 274 256 253 264 278 272 244 241 250 260 274 277 280 283 283 287 279 279
95 39 335 327 316 209 254 260 243 243 246 196 271 260 278 245 4 327 336 318 320 316 312 306 296 288 299 306 308 310 311 307 301 291 282 274 264 260 249 251 256 271 278 276 275 267 258 263 270 275 276 280 284 280
29 346 328 309 287 244 229 223 252 236 13 181 295 288 277 267 275 306 311 327 317 330 346 342 339 341 333 332 334 337 329 326 335 339 338 329 330 333 298 275 275 272 271 276 285 291 282 268 264 267 270 270 276 279
342 359 321 282 258 259 203 181 307 357 345 311 296 301 284 271 274 283 298 325 348 347 334 324 329 343 342 342 338 343 347 338 347 332 324 317 313 309 310 304 297 288 281 279 283 286 288 296 292 287 284 284 281 278
330 345 301 252 267 265 347 339 328 305 304 287 294 249 273 305 309 275 268 302 322 338 347 351 347 347 342 338 335 333 330 335 330 326 315 303 295 294 294 292 287 282 278 278 282 283 282 290 288 288 288 288 288 294
336 306 323 294 301 6 33 4 334 343 233 288 271 239 289 302 295 297 321 352 5 359 351 349 342 332 327 321 317 309 309 315 320 323 324 325 319 321 312 309 290 280 277 280 278 279 283 288 292 293 296 297 296 295
307 305 282 296 305 329 358 351 1 338 282 317 309 281 285 288 312 309 315 248 355 345 337 335 327 320 317 325 323 327 331 326 327 337 338 339 338 336 342 336 330 329 310 299 294 293 296 299 299 300 301 300 300 300